Weather in Columbus

United States     39°57′45″N   82°59′47″W
В апреле 2022 года жителям России запретили посещать сайт meteo.paraplan.net по решению Генеральной прокуратуры. Аудитория сайта уменьшилась в 10 раз. Владельцы сайта не видят смысла в поддержке погодного сервера в таких условиях. Сайт будет закрыт в октябре.
temp.,
°C
wind,
m/s
gust,
m/s
humid.,
%
clouds,
%
prec.,
mm/h
press.,
hPa
HPBL,
m
4 october, tue
tue423:00+11nne376199 0.0 1025200
02:00+9nne246349 0.0 1024146
05:00+8nne2461100 0.0 1024136
08:00+8n246130 0.0 1024120
11:00+14n354877 0.0 1023486
14:00+19n353525 0.0 10211210
17:00+19n45335 0.0 10191338
20:00+15nne38430 0.0 1020231
5 october, wed
wed523:00+12n26410 0.0 1021159
02:00+11nne24410 0.0 102095
05:00+10n22440 0.0 102159
08:00+10nnw23452 0.0 102171
11:00+16n12345 0.0 1021396
14:00+22nnw122948 0.0 1019867
17:00+22nnw123144 0.0 10171261
20:00+18se114535 0.0 101813
6 october, thu
thu623:00+16sw225257 0.0 101838
02:00+14ssw235692 0.0 101875
05:00+13ssw2259100 0.0 101860
08:00+13ssw2457100 0.0 1018114
11:00+19ssw244089 0.0 1017481
14:00+24sw352817 0.0 10151583
17:00+22wsw3734100 0.0 1014628
20:00+18sw25445 0.0 1015120
7 october, fri
fri723:00+16wsw26475 0.0 1015165
02:00+14nnw39612 0.0 1016312
05:00+12nnw498182 0.0 1018409
08:00+11nnw5891100 1.4 1020772
11:00+8nnw51080100 0.3 1023643
14:00+12nnw464813 0.3 10231469
17:00+13n56394 0.0 10231734
20:00+10ene23525 0.0 1025246
8 october, sat
sat823:00+8wnw00565 0.0 102678
02:00+7nw24553 0.0 1026184
05:00+5nnw25565 0.0 1027208
08:00+4nnw23590 0.0 1028198
11:00+9nw24410 0.0 1028864
14:00+13wnw24280 0.0 10261405
17:00+14w35320 0.0 10231496
20:00+11w23430 0.0 102384